Location: Unspecified
(44.4377°N, 88.0525°W)
Time: 03:30:12
(UTC-05:00)

Cosmos 1674 - Visible Passes

Search period start: 26 October 2014 00:00
Search period end: 04 November 2014 23:00
Orbit: 514 x 540 km, 82.5° (Epoch: 24 October)

Date Brightness Start Highest point End Pass type
(mag) Time Alt. Az. Time Alt. Az. Time Alt. Az.
26 Oct 3.1 05:35:29 10° S 05:39:23 66° E 05:43:20 10° NNE visible
27 Oct 3.3 05:24:06 10° S 05:27:59 59° E 05:31:54 10° NNE visible
28 Oct 3.5 05:12:43 10° S 05:16:34 53° E 05:20:27 10° NNE visible
28 Oct 4.6 06:51:04 10° W 06:52:52 13° WNW 06:54:42 10° NW visible
29 Oct 3.7 05:03:43 32° SSE 05:05:08 48° E 05:08:58 10° NNE visible
29 Oct 4.5 06:39:17 10° W 06:41:23 14° WNW 06:43:30 10° NW visible
30 Oct 4.0 04:54:20 39° ENE 04:54:20 39° ENE 04:57:28 10° NNE visible
30 Oct 4.4 06:29:41 15° WNW 06:29:53 15° WNW 06:32:14 10° NNW visible
31 Oct 5.0 04:44:20 22° NE 04:44:20 22° NE 04:45:56 10° NNE visible
31 Oct 4.6 06:19:39 14° NW 06:19:39 14° NW 06:20:56 10° NNW visible
01 Nov 5.6 04:33:59 12° NNE 04:33:59 12° NNE 04:34:23 10° NNE visible
01 Nov 5.0 06:09:17 11° NNW 06:09:17 11° NNW 06:09:35 10° NNW visible
